TimeCDT,TemperatureF,Dew PointF,Humidity,Sea Level PressureIn,VisibilityMPH,Wind Direction,Wind SpeedMPH,Gust SpeedMPH,PrecipitationIn,Events,Conditions,WindDirDegrees,DateUTC
12:53 AM,73.9,73.9,100,29.81,10.0,SSE,4.6,-,N/A,,Clear,150,2011-10-13 05:53:00
1:53 AM,77.0,75.9,96,29.82,10.0,South,5.8,-,N/A,,Clear,180,2011-10-13 06:53:00
2:53 AM,78.1,77.0,96,29.82,10.0,South,3.5,-,N/A,,Partly Cloudy,180,2011-10-13 07:53:00
3:53 AM,73.9,73.9,100,29.83,10.0,Calm,Calm,-,N/A,,Unknown,0,2011-10-13 08:53:00
4:22 AM,75.2,73.4,94,29.84,8.0,NNW,10.4,19.6,N/A,,Mostly Cloudy,340,2011-10-13 09:22:00
4:33 AM,75.2,75.2,100,29.85,7.0,NNW,10.4,-,N/A,,Overcast,340,2011-10-13 09:33:00
4:53 AM,75.0,75.0,100,29.85,7.0,North,10.4,-,N/A,,Overcast,360,2011-10-13 09:53:00
5:13 AM,73.4,73.4,100,29.85,8.0,North,9.2,-,N/A,,Overcast,360,2011-10-13 10:13:00
5:53 AM,73.9,73.9,100,29.86,7.0,North,5.8,-,N/A,,Overcast,10,2011-10-13 10:53:00
6:08 AM,73.4,73.4,100,29.87,8.0,North,4.6,-,N/A,,Overcast,360,2011-10-13 11:08:00
6:25 AM,73.4,73.4,100,29.87,9.0,NNE,6.9,-,N/A,,Overcast,20,2011-10-13 11:25:00
6:53 AM,73.9,73.9,100,29.88,9.0,North,5.8,-,N/A,,Overcast,360,2011-10-13 11:53:00
7:53 AM,73.9,73.9,100,29.88,9.0,North,8.1,-,N/A,,Scattered Clouds,350,2011-10-13 12:53:00
8:53 AM,75.2,73.4,94,29.90,10.0,North,10.4,-,N/A,,Clear,360,2011-10-13 13:53:00
9:53 AM,79.0,71.1,77,29.92,10.0,North,12.7,-,N/A,,Clear,360,2011-10-13 14:53:00
10:53 AM,82.0,64.0,54,29.94,10.0,North,13.8,-,N/A,,Clear,350,2011-10-13 15:53:00
11:53 AM,84.9,60.1,43,29.93,10.0,North,15.0,21.9,0.01,,Clear,360,2011-10-13 16:53:00
12:53 PM,86.0,54.0,33,29.91,10.0,North,16.1,-,N/A,,Clear,360,2011-10-13 17:53:00
1:53 PM,88.0,54.0,31,29.88,10.0,North,17.3,23.0,N/A,,Clear,10,2011-10-13 18:53:00
2:53 PM,88.0,50.0,27,29.86,10.0,North,12.7,-,N/A,,Clear,350,2011-10-13 19:53:00
3:53 PM,88.0,50.0,27,29.85,10.0,North,15.0,-,N/A,,Clear,350,2011-10-13 20:53:00
4:53 PM,87.1,46.9,25,29.84,10.0,North,13.8,-,N/A,,Clear,360,2011-10-13 21:53:00
5:53 PM,84.9,50.0,30,29.84,10.0,North,8.1,-,N/A,,Clear,10,2011-10-13 22:53:00
7:53 PM,73.0,55.9,55,29.87,10.0,NNE,4.6,-,N/A,,Clear,30,2011-10-14 00:53:00
8:53 PM,71.1,54.0,55,29.88,10.0,NNE,4.6,-,N/A,,Clear,30,2011-10-14 01:53:00
9:53 PM,66.9,55.9,68,29.90,10.0,North,6.9,-,N/A,,Clear,360,2011-10-14 02:53:00
10:53 PM,64.9,55.0,70,29.91,10.0,North,6.9,-,N/A,,Clear,350,2011-10-14 03:53:00
11:53 PM,64.0,55.0,73,29.91,10.0,NNE,4.6,-,N/A,,Clear,20,2011-10-14 04:53:00